Time,TemperatureF,DewpointF,PressureIn,WindDirection,WindDirectionDegrees,WindSpeedMPH,WindSpeedGustMPH,Humidity,HourlyPrecipIn,Conditions,Clouds,dailyrainin,SolarRadiationWatts/m^2,SoftwareType,DateUTC
2013-04-04 00:34:00,35.0,16.0,-100.00,SW,229,27.0,32.0,46,0.00,,,0.00,0.000000,,2013-04-04 04:34:00,
2013-04-04 00:43:00,35.0,16.0,-100.00,SW,229,27.0,32.0,46,0.00,,,0.00,0.000000,,2013-04-04 04:43:00,
2013-04-04 00:53:00,35.0,16.0,-100.00,SW,229,27.0,32.0,46,0.00,,,0.00,0.000000,,2013-04-04 04:53:00,
2013-04-04 01:02:00,35.0,16.0,-100.00,SW,229,27.0,32.0,46,0.00,,,0.00,0.000000,,2013-04-04 05:02:00,
2013-04-04 01:32:00,33.0,15.0,-100.00,SW,230,26.0,36.0,47,0.00,,,0.00,0.000000,,2013-04-04 05:32:00,
2013-04-04 01:42:00,33.0,15.0,-100.00,SW,230,26.0,36.0,47,0.00,,,0.00,0.000000,,2013-04-04 05:42:00,
2013-04-04 01:53:00,33.0,15.0,-100.00,SW,230,26.0,36.0,47,0.00,,,0.00,0.000000,,2013-04-04 05:53:00,
2013-04-04 02:02:00,33.0,15.0,-100.00,SW,230,26.0,36.0,47,0.00,,,0.00,0.000000,,2013-04-04 06:02:00,
2013-04-04 02:33:00,33.0,16.0,-100.00,SW,228,27.0,37.0,49,0.00,,,0.00,0.000000,,2013-04-04 06:33:00,
2013-04-04 02:43:00,33.0,16.0,-100.00,SW,228,27.0,37.0,49,0.00,,,0.00,0.000000,,2013-04-04 06:43:00,
2013-04-04 02:53:00,33.0,16.0,-100.00,SW,228,27.0,37.0,49,0.00,,,0.00,0.000000,,2013-04-04 06:53:00,
2013-04-04 03:02:00,33.0,16.0,-100.00,SW,228,27.0,37.0,49,0.00,,,0.00,0.000000,,2013-04-04 07:02:00,
2013-04-04 03:03:00,33.0,15.0,-100.00,SW,227,28.0,38.0,47,0.00,,,0.00,0.000000,,2013-04-04 07:03:00,
2013-04-04 03:22:00,33.0,15.0,-100.00,SW,227,28.0,38.0,47,0.00,,,0.00,0.000000,,2013-04-04 07:22:00,
2013-04-04 03:32:00,33.0,15.0,-100.00,SW,227,28.0,38.0,47,0.00,,,0.00,0.000000,,2013-04-04 07:32:00,
2013-04-04 03:43:00,33.0,15.0,-100.00,SW,227,28.0,38.0,47,0.00,,,0.00,0.000000,,2013-04-04 07:43:00,
2013-04-04 03:53:00,33.0,15.0,-100.00,SW,227,28.0,38.0,47,0.00,,,0.00,0.000000,,2013-04-04 07:53:00,
2013-04-04 04:03:00,32.0,12.0,-100.00,SW,230,26.0,36.0,43,0.00,,,0.00,0.000000,,2013-04-04 08:03:00,
2013-04-04 04:32:00,32.0,12.0,-100.00,SW,230,26.0,36.0,43,0.00,,,0.00,0.000000,,2013-04-04 08:32:00,
2013-04-04 04:44:00,32.0,12.0,-100.00,SW,230,26.0,36.0,43,0.00,,,0.00,0.000000,,2013-04-04 08:44:00,
2013-04-04 04:53:00,32.0,12.0,-100.00,SW,230,26.0,36.0,43,0.00,,,0.00,0.000000,,2013-04-04 08:53:00,
2013-04-04 05:03:00,31.0,12.0,-100.00,SW,235,26.0,37.0,45,0.00,,,0.00,0.000000,,2013-04-04 09:03:00,
2013-04-04 05:34:00,31.0,12.0,-100.00,SW,235,26.0,37.0,45,0.00,,,0.00,0.000000,,2013-04-04 09:34:00,
2013-04-04 05:44:00,31.0,12.0,-100.00,SW,235,26.0,37.0,45,0.00,,,0.00,0.000000,,2013-04-04 09:44:00,
2013-04-04 05:54:00,31.0,12.0,-100.00,SW,235,26.0,37.0,45,0.00,,,0.00,0.000000,,2013-04-04 09:54:00,
2013-04-04 06:03:00,29.0,18.0,-100.00,SW,223,23.0,34.0,64,0.00,,,-99.99,0.000000,,2013-04-04 10:03:00,
2013-04-04 06:34:00,29.0,18.0,-100.00,SW,223,23.0,34.0,64,0.00,,,-99.99,0.000000,,2013-04-04 10:34:00,
2013-04-04 06:43:00,29.0,18.0,-100.00,SW,223,23.0,34.0,64,0.00,,,-99.99,0.000000,,2013-04-04 10:43:00,
2013-04-04 06:54:00,29.0,18.0,-100.00,SW,223,23.0,34.0,64,0.00,,,-99.99,0.000000,,2013-04-04 10:54:00,
2013-04-04 07:03:00,27.0,23.0,-100.00,SSW,198,18.0,28.0,83,0.00,,,0.00,0.000000,,2013-04-04 11:03:00,
2013-04-04 07:23:00,27.0,23.0,-100.00,SSW,198,18.0,28.0,83,0.00,,,0.00,0.000000,,2013-04-04 11:23:00,
2013-04-04 07:33:00,27.0,23.0,-100.00,SSW,198,18.0,28.0,83,0.00,,,0.00,0.000000,,2013-04-04 11:33:00,
2013-04-04 07:43:00,27.0,23.0,-100.00,SSW,198,18.0,28.0,83,0.00,,,0.00,0.000000,,2013-04-04 11:43:00,
2013-04-04 07:55:00,27.0,23.0,-100.00,SSW,198,18.0,28.0,83,0.00,,,0.00,0.000000,,2013-04-04 11:55:00,
2013-04-04 08:33:00,26.0,23.0,-100.00,SW,215,18.0,24.0,90,0.00,,,0.00,3.000000,,2013-04-04 12:33:00,
2013-04-04 08:44:00,26.0,23.0,-100.00,SW,215,18.0,24.0,90,0.00,,,0.00,3.000000,,2013-04-04 12:44:00,
2013-04-04 08:53:00,26.0,23.0,-100.00,SW,215,18.0,24.0,90,0.00,,,0.00,3.000000,,2013-04-04 12:53:00,
2013-04-04 09:02:00,26.0,23.0,-100.00,SW,215,18.0,24.0,90,0.00,,,0.00,3.000000,,2013-04-04 13:02:00,
2013-04-04 09:03:00,25.0,24.0,-100.00,SW,224,16.0,22.0,95,0.00,,,0.00,36.000000,,2013-04-04 13:03:00,
2013-04-04 09:33:00,25.0,24.0,-100.00,SW,224,16.0,22.0,95,0.00,,,0.00,36.000000,,2013-04-04 13:33:00,
2013-04-04 09:43:00,25.0,24.0,-100.00,SW,224,16.0,22.0,95,0.00,,,0.00,36.000000,,2013-04-04 13:43:00,
2013-04-04 09:53:00,25.0,24.0,-100.00,SW,224,16.0,22.0,95,0.00,,,0.00,36.000000,,2013-04-04 13:53:00,
2013-04-04 10:03:00,25.0,24.0,-100.00,SSW,209,0.0,20.0,97,0.00,,,0.00,33.000000,,2013-04-04 14:03:00,
2013-04-04 10:22:00,25.0,24.0,-100.00,SSW,209,0.0,20.0,97,0.00,,,0.00,33.000000,,2013-04-04 14:22:00,
2013-04-04 10:33:00,25.0,24.0,-100.00,SSW,209,0.0,20.0,97,0.00,,,0.00,33.000000,,2013-04-04 14:33:00,
2013-04-04 10:43:00,25.0,24.0,-100.00,SSW,209,0.0,20.0,97,0.00,,,0.00,33.000000,,2013-04-04 14:43:00,
2013-04-04 10:53:00,25.0,24.0,-100.00,SSW,209,0.0,20.0,97,0.00,,,0.00,33.000000,,2013-04-04 14:53:00,
2013-04-04 11:03:00,24.0,23.0,-100.00,SW,221,0.0,0.0,96,0.00,,,0.00,25.000000,,2013-04-04 15:03:00,
2013-04-04 11:34:00,24.0,23.0,-100.00,SW,221,0.0,0.0,96,0.00,,,0.00,25.000000,,2013-04-04 15:34:00,
2013-04-04 11:43:00,24.0,23.0,-100.00,SW,221,0.0,0.0,96,0.00,,,0.00,25.000000,,2013-04-04 15:43:00,
2013-04-04 11:54:00,24.0,23.0,-100.00,SW,221,0.0,0.0,96,0.00,,,0.00,25.000000,,2013-04-04 15:54:00,
2013-04-04 15:03:00,26.0,25.0,-100.00,SSW,212,0.0,0.0,96,-99.99,,,0.00,42.000000,,2013-04-04 19:03:00,
2013-04-04 15:33:00,26.0,25.0,-100.00,SSW,212,0.0,0.0,96,-99.99,,,0.00,42.000000,,2013-04-04 19:33:00,
2013-04-04 15:43:00,26.0,25.0,-100.00,SSW,212,0.0,0.0,96,-99.99,,,0.00,42.000000,,2013-04-04 19:43:00,
2013-04-04 15:53:00,26.0,25.0,-100.00,SSW,212,0.0,0.0,96,-99.99,,,0.00,42.000000,,2013-04-04 19:53:00,
2013-04-04 16:33:00,27.0,26.0,-100.00,SSW,212,0.0,0.0,95,0.00,,,0.00,136.000000,,2013-04-04 20:33:00,
2013-04-04 16:42:00,27.0,26.0,-100.00,SSW,212,0.0,0.0,95,0.00,,,0.00,136.000000,,2013-04-04 20:42:00,
2013-04-04 16:53:00,27.0,26.0,-100.00,SSW,212,0.0,0.0,95,0.00,,,0.00,136.000000,,2013-04-04 20:53:00,
2013-04-04 17:02:00,27.0,26.0,-100.00,SSW,212,0.0,0.0,95,0.00,,,0.00,136.000000,,2013-04-04 21:02:00,
2013-04-04 17:03:00,28.0,27.0,-100.00,SSW,212,0.0,0.0,96,0.00,,,0.00,127.000000,,2013-04-04 21:03:00,
2013-04-04 17:22:00,28.0,27.0,-100.00,SSW,212,0.0,0.0,96,0.00,,,0.00,127.000000,,2013-04-04 21:22:00,
2013-04-04 17:33:00,28.0,27.0,-100.00,SSW,212,0.0,0.0,96,0.00,,,0.00,127.000000,,2013-04-04 21:33:00,
2013-04-04 17:43:00,28.0,27.0,-100.00,SSW,212,0.0,0.0,96,0.00,,,0.00,127.000000,,2013-04-04 21:43:00,
2013-04-04 17:53:00,28.0,27.0,-100.00,SSW,212,0.0,0.0,96,0.00,,,0.00,127.000000,,2013-04-04 21:53:00,
2013-04-04 18:03:00,30.0,29.0,-100.00,SSW,212,0.0,0.0,97,0.00,,,0.00,103.000000,,2013-04-04 22:03:00,
2013-04-04 18:33:00,30.0,29.0,-100.00,SSW,212,0.0,0.0,97,0.00,,,0.00,103.000000,,2013-04-04 22:33:00,
2013-04-04 18:43:00,30.0,29.0,-100.00,SSW,212,0.0,0.0,97,0.00,,,0.00,103.000000,,2013-04-04 22:43:00,
2013-04-04 18:53:00,30.0,29.0,-100.00,SSW,212,0.0,0.0,97,0.00,,,0.00,103.000000,,2013-04-04 22:53:00,
2013-04-04 19:22:00,31.0,31.0,-100.00,SSW,212,0.0,0.0,98,0.00,,,0.00,93.000000,,2013-04-04 23:22:00,
2013-04-04 19:32:00,31.0,31.0,-100.00,SSW,212,0.0,0.0,98,0.00,,,0.00,93.000000,,2013-04-04 23:32:00,
2013-04-04 19:43:00,31.0,31.0,-100.00,SSW,212,0.0,0.0,98,0.00,,,0.00,93.000000,,2013-04-04 23:43:00,
2013-04-04 19:52:00,31.0,31.0,-100.00,SSW,212,0.0,0.0,98,0.00,,,0.00,93.000000,,2013-04-04 23:52:00,
2013-04-04 20:02:00,31.0,31.0,-100.00,SSW,212,0.0,0.0,98,0.00,,,0.00,93.000000,,2013-04-05 00:02:00,
2013-04-04 20:22:00,30.0,29.0,-100.00,SSW,212,0.0,0.0,98,0.00,,,0.00,11.000000,,2013-04-05 00:22:00,
2013-04-04 20:33:00,30.0,29.0,-100.00,SSW,212,0.0,0.0,98,0.00,,,0.00,11.000000,,2013-04-05 00:33:00,
2013-04-04 20:43:00,30.0,29.0,-100.00,SSW,212,0.0,0.0,98,0.00,,,0.00,11.000000,,2013-04-05 00:43:00,
2013-04-04 20:52:00,30.0,29.0,-100.00,SSW,212,0.0,0.0,98,0.00,,,0.00,11.000000,,2013-04-05 00:52:00,
2013-04-04 21:02:00,30.0,29.0,-100.00,SSW,212,0.0,0.0,98,0.00,,,0.00,11.000000,,2013-04-05 01:02:00,
2013-04-04 21:03:00,30.0,30.0,-100.00,SSW,212,0.0,0.0,99,0.00,,,0.00,0.000000,,2013-04-05 01:03:00,
2013-04-04 21:32:00,30.0,30.0,-100.00,SSW,212,0.0,0.0,99,0.00,,,0.00,0.000000,,2013-04-05 01:32:00,
2013-04-04 21:42:00,30.0,30.0,-100.00,SSW,212,0.0,0.0,99,0.00,,,0.00,0.000000,,2013-04-05 01:42:00,
2013-04-04 21:54:00,30.0,30.0,-100.00,SSW,212,0.0,0.0,99,0.00,,,0.00,0.000000,,2013-04-05 01:54:00,
2013-04-04 22:43:00,-999.0,-99.9,-100.00,North,-999,0.0,-999.0,-999,0.00,,,0.00,,,2013-04-05 02:43:00,
2013-04-04 22:53:00,-999.0,-99.9,-100.00,North,-999,0.0,-999.0,-999,0.00,,,0.00,,,2013-04-05 02:53:00,
2013-04-04 23:02:00,-999.0,-99.9,-100.00,North,-999,0.0,-999.0,-999,0.00,,,0.00,,,2013-04-05 03:02:00,
2013-04-04 23:03:00,32.0,32.0,-100.00,SSW,212,0.0,-999.0,99,0.00,,,0.00,,,2013-04-05 03:03:00,
2013-04-04 23:33:00,32.0,32.0,-100.00,SSW,212,0.0,-999.0,99,0.00,,,0.00,,,2013-04-05 03:33:00,
2013-04-04 23:43:00,32.0,32.0,-100.00,SSW,212,0.0,-999.0,99,0.00,,,0.00,,,2013-04-05 03:43:00,
2013-04-04 23:54:00,32.0,32.0,-100.00,SSW,212,0.0,-999.0,99,0.00,,,0.00,,,2013-04-05 03:54:00,